Location: Columbia
(38.9520°N, 92.3340°W)
Time: 10:40:01
(UTC-06:00)

Cosmos 1603 - Visible Passes

Search period start: 01 February 2015 00:00
Search period end: 11 February 2015 00:00
Orbit: 833 x 858 km, 71.0° (Epoch: 31 January)

Date Brightness Start Highest point End Pass type
(mag) Time Alt. Az. Time Alt. Az. Time Alt. Az.
07 Feb 6.1 06:33:26 10° NNE 06:36:45 16° NE 06:40:18 10° E visible
08 Feb 6.2 06:19:39 10° NNE 06:22:53 16° NE 06:26:20 10° E visible
09 Feb 6.2 06:05:53 10° NNE 06:09:00 15° NE 06:12:21 10° E visible
10 Feb 6.2 05:52:07 10° NNE 05:55:08 15° NE 05:58:23 10° E visible
